Terminal Aerodrome Forecast
Issued by NWS Sterling, VA

Current Version | Previous Version | Graphics & Text | Print | Product List | Glossary On
Versions: 1 2 3 4 5 6 7 8 9 10 11 12 13 14 15 16 17 18 19 20 21 22 23
000
FTUS41 KLWX 191100
TAFIAD
TAF
KIAD 191131Z 1912/2018 01003KT P6SM OVC250
     FM191600 04007KT P6SM BKN250
     FM192100 01010KT P6SM BKN250
     FM200100 02008KT P6SM SCT250
     FM200800 01004KT P6SM FEW250=

USA.gov is the U.S. government's official web portal to all federal, state and local government web resources and services.